map of FAO home
FAO - Airport
Location
City:  Faro, Faro, Portugal
ICAO:LPFR
IATA:FAO

Details
Type:Airport (Aerodrome, Airfield)
Use:Public/Civil, International (customs port of entry)
Latitude:3700'52"N (37.014425)
Longitude:757'57"W (-7.965910)
Datum:WGS 1984
Elevation:24 ft (7 m)
Variation:1.91W (WMM2015 magnetic declination)
0.12 annual change
Runways:1
Longest:8169 × 148 ft (2490 × 45 m), paved

Time
Time Zone:UTC+0 (DST+1)
Local Time:

Weather
METAR:LPFR 200700Z 02008KT CAVOK 09/03 Q1017
TAF:LPFR 200500Z 2006/2106 02008KT CAVOK
BECMG 2009/2012 09012KT
BECMG 2013/2015 16008KT
BECMG 2016/2018 28010KT
BECMG 2019/2021 31008KT

Related Locations
Nearby:
Farthest:NZRW: 12314 mi / 19818 km
Ruawai, NTL, NZ

Find:

   beyond  
but within

Other Information
Maps:
NOTAMs:
Links:
Sources:

  
flag of Portugal
flag of Faro
  

Sectional Chart

Flight Planning
at skyvector.com

Satellite Image

Google Maps Satellite view

 

Copyright © 2004-2018 Karl L. Swartz. All rights reserved.
The Great Circle Mapper name and logo are trademarks of the Great Circle Mapper.
All other trademarks mentioned herein belong to their respective owners.
Please see credits for attibutions and further copyright information.

  Follow gcmap on Facebook Follow gcmap on Twitter Follow gcmap on Google+ GCmap on LinkedIn

hCard Microformat

Geo Microformat